Location: Moscow
(55.7500°N, 37.5830°E)
Time: 01:51:51
(UTC+03:00)

Explorer 7 - Pass Details

Date: 01 December 2021
Orbit: 483 x 674 km, 50.3° (Epoch: 17 January)

Event Time Altitude Azimuth Distance (km) Brightness Sun altitude
Rises 08:06:23 0° 224° (SW) 2,743 10.3 -4.1°
Reaches altitude 10° 08:08:59 10° 211° (SSW) 1,813 9.5 -3.8°
Maximum altitude 08:12:17 24° 157° (SSE) 1,135 9.3 -3.4°
Drops below altitude 10° 08:15:27 10° 103° (ESE) 1,736 10.8 -3.0°
Sets 08:17:54 0° 89° (E) 2,598 11.2 -2.7°
